Total_Precipitation_Accumulation
2.22 2.36 2.39 2.37 2.46 2.44 2.59 2.83 3.07 2.97 2.67 2.48 2.35 2.30 2.35 2.44 2.75 2.48 2.35 2.33 2.08 1.94 1.91 1.96 2.04 2.10 2.28 2.54 2.70 2.76 2.77 2.83 2.89 2.93 3.01 3.15 3.31 3.41
2.04 2.10 2.12 2.11 2.31 2.42 2.46 2.62 2.89 3.06 2.97 2.59 2.37 2.19 2.27 2.24 2.62 2.46 2.45 2.55 2.22 1.96 1.89 1.97 2.03 2.02 2.08 2.15 2.31 2.44 2.53 2.58 2.59 2.62 2.72 2.84 2.96 3.16
1.89 1.85 1.86 2.02 2.15 2.16 2.27 2.40 2.66 2.97 3.08 2.80 2.51 2.36 2.42 2.47 2.52 2.50 2.38 2.24 2.09 2.08 1.94 1.91 2.10 2.29 2.16 1.99 1.96 2.02 2.18 2.31 2.40 2.41 2.48 2.60 2.69 2.82
1.69 1.71 1.59 1.69 1.90 2.00 2.13 2.20 2.38 2.61 2.79 2.74 2.54 2.48 2.44 2.45 2.57 2.54 2.32 2.04 1.89 2.04 1.93 1.88 2.04 2.41 2.47 2.19 2.01 1.89 1.86 1.90 2.01 2.14 2.22 2.30 2.42 2.59
1.57 1.57 1.56 1.72 1.80 1.95 2.06 2.12 2.29 2.36 2.62 2.61 2.43 2.44 2.51 2.47 2.58 2.45 2.23 2.18 1.75 1.76 1.81 1.84 1.93 2.51 2.92 2.69 2.36 2.13 1.88 1.72 1.66 1.78 1.92 2.05 2.09 2.17
1.49 1.51 1.54 1.63 1.75 1.97 2.03 2.17 2.35 2.48 2.62 2.64 2.53 2.52 2.59 2.64 2.66 2.65 2.45 2.23 1.91 1.55 1.67 1.77 1.94 2.39 2.99 3.16 2.77 2.48 2.20 1.95 1.73 1.64 1.67 1.71 1.73 1.75
1.49 1.46 1.43 1.46 1.60 1.74 1.80 2.07 2.37 2.54 2.60 2.65 2.59 2.56 2.54 2.69 2.54 2.39 2.36 2.22 1.96 1.72 1.77 1.66 1.88 2.50 3.14 3.48 3.26 2.67 2.23 2.02 1.86 1.68 1.58 1.53 1.50 1.52
1.55 1.51 1.34 1.30 1.34 1.40 1.48 1.60 1.94 2.23 2.42 2.55 2.52 2.47 2.40 2.43 2.42 2.32 2.33 2.34 2.16 1.77 1.82 1.88 2.11 2.91 3.46 3.70 3.62 2.80 2.13 1.91 1.82 1.73 1.64 1.54 1.44 1.38
1.54 1.58 1.39 1.22 1.33 1.36 1.36 1.34 1.47 1.73 2.08 2.37 2.45 2.28 2.33 2.39 2.49 2.47 2.36 2.34 2.25 1.92 1.93 2.01 2.30 2.94 3.32 3.70 3.69 2.93 2.31 1.96 1.87 1.81 1.71 1.60 1.51 1.41
1.43 1.45 1.51 1.47 1.30 1.32 1.41 1.49 1.59 1.70 1.81 1.91 2.16 2.26 2.29 2.29 2.29 2.30 2.37 2.40 2.24 1.94 1.98 2.21 2.29 2.68 3.05 3.57 3.53 2.87 2.37 2.07 1.91 1.81 1.69 1.55 1.46 1.43
1.24 1.19 1.23 1.27 1.21 1.25 1.44 1.69 1.86 2.01 1.84 1.84 1.96 2.16 2.22 2.09 1.96 2.10 2.38 2.50 2.30 1.94 1.83 2.09 2.22 2.42 2.77 3.10 2.97 2.64 2.28 2.05 1.87 1.71 1.62 1.55 1.48 1.46
1.17 1.14 1.16 1.15 1.14 1.22 1.44 1.81 2.02 2.09 1.89 1.78 1.93 2.11 2.03 1.97 2.00 2.10 2.35 2.40 2.26 2.13 1.81 1.96 2.08 2.23 2.63 2.70 2.47 2.21 2.11 2.11 1.94 1.78 1.66 1.54 1.46 1.38
1.06 1.12 1.15 1.13 1.08 1.18 1.41 1.69 1.91 1.97 1.91 1.89 1.98 2.07 2.09 2.11 2.02 2.03 2.14 2.15 2.17 2.09 1.72 1.93 2.14 2.23 2.47 2.52 2.39 2.22 2.02 1.98 1.94 1.99 1.94 1.71 1.54 1.45
1.08 1.08 1.11 1.14 1.11 1.23 1.34 1.63 1.92 2.07 1.96 1.85 1.82 1.85 1.86 1.87 1.83 1.75 1.77 1.79 1.84 1.89 1.81 1.98 2.28 2.40 2.36 2.24 2.30 2.21 2.14 2.07 1.97 2.00 2.08 1.98 1.77 1.70
0.94 1.07 1.06 1.02 1.17 1.44 1.60 1.77 1.99 2.16 2.05 1.83 1.73 1.64 1.61 1.63 1.60 1.64 1.64 1.64 1.58 1.50 1.42 1.65 2.03 2.25 2.31 2.23 2.19 2.15 2.30 2.44 2.28 2.20 2.11 1.98 1.85 1.73
0.78 0.99 1.14 1.20 1.36 1.66 1.89 2.01 2.07 2.05 1.90 1.74 1.63 1.57 1.52 1.52 1.56 1.54 1.61 1.62 1.65 1.58 1.43 1.47 1.74 2.03 2.17 2.10 2.15 2.20 2.27 2.66 2.63 2.38 2.24 2.17 2.02 1.86
0.76 0.97 1.15 1.26 1.47 1.71 1.85 1.87 1.87 1.83 1.78 1.67 1.57 1.52 1.51 1.50 1.51 1.51 1.55 1.52 1.57 1.54 1.56 1.58 1.67 1.81 1.87 1.94 2.09 2.11 2.26 2.44 2.46 2.29 2.24 2.29 2.24 2.04
0.82 1.07 1.25 1.36 1.54 1.66 1.77 1.74 1.67 1.65 1.63 1.60 1.58 1.49 1.45 1.47 1.53 1.51 1.46 1.45 1.49 1.44 1.41 1.45 1.51 1.59 1.70 1.81 1.93 2.01 2.04 2.19 2.23 2.16 2.03 2.11 2.27 2.17
0.87 1.12 1.32 1.45 1.56 1.60 1.62 1.60 1.56 1.51 1.44 1.45 1.45 1.42 1.40 1.41 1.45 1.45 1.40 1.38 1.38 1.35 1.28 1.31 1.37 1.45 1.59 1.82 1.89 1.90 1.90 1.95 2.02 2.00 1.93 1.93 2.11 2.17
0.93 1.13 1.33 1.41 1.45 1.50 1.49 1.48 1.45 1.41 1.36 1.38 1.44 1.40 1.32 1.29 1.26 1.26 1.28 1.26 1.24 1.21 1.23 1.26 1.25 1.36 1.53 1.69 1.94 1.98 1.81 1.68 1.73 1.79 1.74 1.78 1.94 1.96
0.92 1.03 1.14 1.24 1.33 1.39 1.38 1.35 1.35 1.32 1.26 1.26 1.29 1.29 1.24 1.17 1.11 1.07 1.07 1.02 1.03 1.07 1.16 1.24 1.23 1.14 1.18 1.36 1.63 1.76 1.73 1.72 1.65 1.61 1.56 1.67 1.69 1.57
0.90 0.96 0.99 1.02 1.10 1.18 1.18 1.13 1.15 1.14 1.11 1.13 1.13 1.14 1.17 1.13 1.04 0.97 0.95 0.95 0.99 1.00 1.03 1.05 1.01 1.01 1.12 1.33 1.52 1.61 1.58 1.46 1.44 1.40 1.36 1.35 1.34 1.45
0.80 0.83 0.85 0.87 0.87 0.89 0.95 0.96 1.01 1.08 1.11 1.10 1.09 1.07 1.04 1.00 0.93 0.90 0.90 0.88 0.85 0.85 0.91 0.99 1.01 1.05 1.13 1.23 1.37 1.39 1.31 1.26 1.25 1.26 1.31 1.33 1.23 1.27